Change the Weather History Date:

Sunday, July 13, 2014

  Actual Average Record
Temperature  
Mean Temperature 74 °F 74 °F  
Max Temperature 83 °F 83 °F 94 °F (1994)
Min Temperature 65 °F 64 °F 52 °F (1933)
Degree Days  
Heating Degree Days 0 0  
Month to date heating degree days 0 0  
Since 1 June heating degree days 13 43  
Since 1 July heating degree days 0 0  
Cooling Degree Days 9 9  
Month to date cooling degree days 142 105  
Year to date cooling degree days 256 263  
Since 1 June cooling degree days 245 237  
Growing Degree Days 23 (Base 50)    
Moisture  
Dew Point 63 °F    
Average Humidity 68    
Maximum Humidity 93    
Minimum Humidity 43    
Precipitation  
Precipitation 0.00 in 0.11 in 3.57 in (1996)
Month to date precipitation 2.68 1.25  
Year to date precipitation 27.84 24.96  
Snow  
Snow 0.00 in 0.00 in 0.00 in (2002)
Month to date snowfall 0.0 0.0  
Since 1 June snowfall 0.0 0.0  
Since 1 July snowfall 0.0 0.0  
Snow Depth 0.00 in    
Sea Level Pressure  
Sea Level Pressure 30.05 in    
Wind  
Wind Speed 13 mph (SSW)    
Max Wind Speed 24 mph    
Max Gust Speed 31 mph    
Visibility 10 miles    
Events      
T = Trace of Precipitation, MM = Missing Value Source: NWS Daily Summary

Daily Weather History Graph

Daily Weather History Graph

Search for Another Location

Airport or City:

Trip Planner

Search our weather history database for the weather conditions in past years. The results will help you decide how hot, cold, wet, or windy it might be!

Date:

Astronomy

Jul. 13, 2014 Rise Set
Actual Time 5:22 AM EDT 8:19 PM EDT
Civil Twilight 4:49 AM EDT 8:53 PM EDT
Nautical Twilight 4:07 AM EDT 9:35 PM EDT
Astronomical Twilight 3:17 AM EDT 10:24 PM EDT
Moon 9:03 PM EDT (7/13) 6:51 AM EDT (7/13)
Length of Visible Light 16h 03m
Length of Day
14h 57m
Full, 98% of the Moon is Illuminated
Jul 13
Full
Jul 18
Last Quarter
Jul 26
New
Aug 3
First Quarter
Aug 10
Full

Hourly Weather History & Observations

Time (EDT) Temp. Heat Index Dew Point Humidity Pressure Visibility Wind Dir Wind Speed Gust Speed Precip Events Conditions
12:51 AM 66.0 °F - 61.0 °F 84% 30.15 in 10.0 mi SSW 4.6 mph - N/A   Clear
1:51 AM 66.0 °F - 62.1 °F 87% 30.13 in 10.0 mi South 4.6 mph - N/A   Clear
2:51 AM 66.0 °F - 63.0 °F 90% 30.12 in 10.0 mi South 4.6 mph - N/A   Clear
3:51 AM 66.0 °F - 63.0 °F 90% 30.12 in 10.0 mi South 4.6 mph - N/A   Clear
4:51 AM 66.0 °F - 63.0 °F 90% 30.11 in 10.0 mi SSW 6.9 mph - N/A   Clear
5:51 AM 66.9 °F - 64.0 °F 90% 30.12 in 10.0 mi SSW 5.8 mph - N/A   Scattered Clouds
6:51 AM 69.1 °F - 64.9 °F 87% 30.12 in 10.0 mi SSW 6.9 mph - N/A   Mostly Cloudy
7:51 AM 72.0 °F - 64.0 °F 76% 30.11 in 10.0 mi SSW 10.4 mph - N/A   Mostly Cloudy
8:51 AM 75.9 °F - 63.0 °F 64% 30.11 in 10.0 mi SSW 8.1 mph - N/A   Scattered Clouds
9:51 AM 79.0 °F - 59.0 °F 50% 30.09 in 10.0 mi SW 13.8 mph 19.6 mph N/A   Scattered Clouds
10:51 AM 81.0 °F 81.3 °F 59.0 °F 47% 30.08 in 10.0 mi South 17.3 mph - N/A   Partly Cloudy
11:51 AM 81.0 °F 81.0 °F 57.0 °F 44% 30.07 in 10.0 mi South 17.3 mph 23.0 mph N/A   Partly Cloudy
1:51 PM 82.0 °F 82.1 °F 59.0 °F 45% 30.05 in 10.0 mi SSW 17.3 mph 29.9 mph N/A   Scattered Clouds
2:51 PM 82.4 °F 82.9 °F 60.8 °F 48% 30.03 in 10.0 mi South 17.3 mph 28.8 mph N/A   Partly Cloudy
3:51 PM 81.0 °F 81.7 °F 61.0 °F 50% 30.01 in 9.0 mi SSW 19.6 mph 27.6 mph N/A   Partly Cloudy
4:51 PM 80.1 °F 81.7 °F 64.0 °F 58% 29.99 in 10.0 mi SSW 20.7 mph 27.6 mph N/A   Partly Cloudy
5:51 PM 77.0 °F - 66.0 °F 69% 29.98 in 10.0 mi SSW 19.6 mph 27.6 mph N/A   Mostly Cloudy
6:51 PM 75.0 °F - 66.9 °F 76% 29.97 in 10.0 mi SSW 12.7 mph 24.2 mph N/A   Mostly Cloudy
7:51 PM 73.0 °F - 66.0 °F 79% 29.97 in 10.0 mi SSW 13.8 mph 25.3 mph N/A   Mostly Cloudy
8:51 PM 73.0 °F - 66.0 °F 79% 29.97 in 10.0 mi SSW 15.0 mph 19.6 mph N/A   Mostly Cloudy
9:51 PM 72.0 °F - 66.9 °F 84% 29.98 in 10.0 mi SSW 13.8 mph 19.6 mph N/A   Overcast
10:51 PM 73.0 °F - 66.9 °F 81% 29.96 in 10.0 mi SSW 11.5 mph - N/A   Mostly Cloudy
11:51 PM 73.0 °F - 66.9 °F 81% 29.95 in 10.0 mi SW 13.8 mph 20.7 mph N/A   Mostly Cloudy